Flag for U.S.A. Weather past 2 weeks in Fremont, California, U.S.A.

Now
55 °F

Overcast.


Feels Like: 55 °F
Forecast: 55 / 77 °F
Wind: No wind

Location: Moffett Field

Current Time: May 30, 2015 at 3:53:31 AM

Latest Report: May 30, 2015 at 2:56 AM


Visibility: 10 mi

Pressure: 29.94 "Hg

Humidity: 87%

Dew point: 51 °F

Location of FremontLocation

Historic Weather in Fremont — Graph

°F

Fremont temperature yesterday

Maximum temperature yesterday: 65 °F (at 2:56 PM)
Minimum temperature yesterday: 55 °F (at 2:56 AM)
Average temperature yesterday: 59 °F

Past Weeks' High & Low Weather Summary

 TemperatureHumidityPressure
High68 °F (May 26, 2:56 PM)93% (May 15, 5:56 AM)30.14 "Hg (May 15, 5:56 AM)
Low49 °F (May 15, 5:56 AM)50% (May 15, 3:56 PM)29.87 "Hg (May 15, 2:56 AM)
Average59 °F71%30.02 "Hg
* Reported May 15 1:56 AM — May 30 1:56 AM, Fremont, Weather by CustomWeather, © 2015

Note: Actual official high and low records may vary slightly from our data, if they occured in-between our weather recording intervals... More about our weather records

Advertising

Fremont weather history for previous 24 hours

 ConditionsComfort  
Time TempWeatherWind HumidityBarometerVisibility
1:56 AM
Sat, May 30
56 °FOvercast.No wind84%29.95 "Hg10 mi
12:56 AM55 °FOvercast.3 mph87%29.96 "Hg10 mi
11:56 PM
Fri, May 29
56 °FOvercast.3 mph84%29.98 "Hg10 mi
11:03 PM55 °FOvercast.6 mph88%29.97 "Hg10 mi
10:56 PM56 °FPassing clouds.6 mph87%29.98 "Hg10 mi
10:03 PM57 °FOvercast.9 mph82%29.98 "Hg10 mi
9:56 PM56 °FPassing clouds.8 mph87%29.98 "Hg10 mi
8:56 PM57 °FPassing clouds.9 mph87%29.98 "Hg10 mi
7:56 PM58 °FScattered clouds.13 mph84%29.96 "Hg10 mi
6:56 PM60 °FSunny.14 mph80%29.95 "Hg10 mi
5:56 PM62 °FSunny.15 mph75%29.94 "Hg10 mi
4:56 PM63 °FSunny.13 mph73%29.95 "Hg10 mi
3:56 PM64 °FSunny.15 mph70%29.96 "Hg10 mi
2:56 PM65 °FSunny.15 mph68%29.98 "Hg10 mi
1:56 PM64 °FSunny.15 mph68%29.99 "Hg10 mi
12:56 PM62 °FSunny.13 mph73%30.00 "Hg10 mi
11:56 AM64 °FSunny.7 mph68%30.01 "Hg10 mi
10:56 AM61 °FPassing clouds.3 mph72%30.02 "Hg10 mi
9:56 AM60 °FOvercast.6 mph75%30.02 "Hg10 mi
8:56 AM58 °FOvercast.3 mph78%30.01 "Hg10 mi
7:56 AM56 °FOvercast.3 mph84%30.01 "Hg10 mi
6:56 AM55 °FOvercast.No wind87%30.01 "Hg10 mi
5:56 AM55 °FOvercast.3 mph87%29.99 "Hg10 mi
4:56 AM55 °FOvercast.3 mph83%30.00 "Hg10 mi
3:56 AM55 °FOvercast.No wind87%30.01 "Hg10 mi
Weather by CustomWeather, © 2015

See weather overviewHow to use our weather pages